カタログに戻る

SL-8 DEB

LostLEO
NORAD 39701·DEBRIS·🇷🇺 Russia

打ち上げ Feb 12, 1991 から Plesetsk Cosmodrome

Loading…

次のパス (今後24時間)

TLE

古いSource: Space-Track

元期: Mar 12, 2025, 03:42 UTC

1 39701U 91009DQ  25071.15444741 -.00000041  00000-0 -23702-3 0  9998
2 39701  73.9837 235.3626 0133496 145.3268 332.4979 12.24787487505930

AllMySatでSL-8 DEBをリアルタイム追跡

Download on the App Store